ARIANE 5 R/B, 41309

Orbit data source: Space-Track

ARIANE 5 R/B, 41309 is space debris in HEO originally from a launch on Wed, 27 Jan 2016 UTC launched from the French Guiana (FRGUI). Debris objects in space refer to the collection of defunct objects orbiting the Earth. Examples of debris include non-operational satellites, rocket bodies, and fragments generated from explosions, collisions, or faulty payload assembly.

Loading next visibility...
ARIANE 5 R/B details
Identifier
41309, 2016-004B
Orbit
HEO
Last TLE update1 day ago
Origin
Flag of FRArianespace (FR)
ManufacturerAirbus Safran
MissionSpacecraft
Bus & MotorESC-A, Unknown motor
Mass~5,000 kg wet, ~5,000 kg dry
Launch date (UTC)
2016-01-27 (9 years ago)
Launch vehicleUnknown
Launch site
French Guiana (FRGUI)
Object type
Payload
Rocket body
Debris
Shape & HBRCyl + 1 Nozzle, 7 m
Radar Cross Section41.627 m², Large (>1 m²)

Expand to show TLE details & history

TLE from 1 day ago
0 ARIANE 5 R/B
1 41309U 16004B   25035.46837603  .00001684  00000-0  10778-2 0  9994
2 41309   1.0782 318.2579 7188149 109.2072 336.9441  2.37441088 76696
Epoch: 2025-02-04T11:14Z
Definitive object data (Epoch: 2025-02-04T11:14:27.689Z)
Latitude
Longitude16.25718°
Altitude8,335.686 km
Speed6.114 km/s
True Right ascension21h 18m 58s
True Declination0° 00' 00"
Sunlit
Object was in daylight at TLE epoch
Visualization TLE readout
Latitude-0.88397°
Longitude-40.22398°
Altitude31,036.759 km
Speed2.124 km/s
Apparent Right ascension17h 38m 35s
Apparent Declination-8° 07' 02"
Sunlit
Object is in daylight
Visualization observer readout
Local Sidereal Time16:56:09
Azimuth166.031° S
Elevation40.974°
Doppler factor1
Orbital elements
Apogee altitude34,425.134 km
Perigee altitude296.969 km
Semi-major axis23,739.189 km
Eccentricity0.7188149
Inclination1.0782°
RAAN318.2579°
Arg. of periapsis109.2072°
True anomaly252.2658°
Mean anomaly336.9441°
Eccentric anomaly302.02777°
Mean motion0.5934 °/min
BSTAR0.0010778
Orbital period606.68 mins
Loading maneuver chart data...
Loading historical data...
Loading historical data...
Loading historical data...
Loading historical data...
Loading historical data...
Loading historical data...
Loading historical data...

ARIANE 5 R/B Visibility forecast

Observer location: undefined°, undefined

Span
Click to sort rows by Start time (UTC) header in descending order
Start Az.
Max El. time (UTC)
Max El. Az.
Max El.
End time (UTC)
End Az.
169 mins2025-02-05 14:52:35.410Z166.037° S2025-02-05 15:03:35.410Z167.35° S33.256°2025-02-05 17:41:35.410Z134.017° SE
|